Le nostre stazioni meteo in Italia

Pubblicità
Il mio iltempo24.it
Bonifati, Italia (16337): Temperatura & dewpoint: 16.01.2020 01:00:00 - 22.01.2020 01:00:00 (CET)Bonifati, Italia (16337): velocità del vento: 16.01.2020 01:00:00 - 22.01.2020 01:00:00 (CET)Bonifati, Italia (16337): direzione del vento: 16.01.2020 01:00:00 - 22.01.2020 01:00:00 (CET)Bonifati, Italia (16337): reduced air pressure: 16.01.2020 01:00:00 - 22.01.2020 01:00:00 (CET)Bonifati, Italia (16337): visibility: 16.01.2020 01:00:00 - 22.01.2020 01:00:00 (CET)
Data & Tempo tt [°C] td [°C] ff [km/h] ff [kn] dd ppp [hPa] vv [km]
22.01.2020 01:00:00 - - - - - - -
22.01.2020 00:00:00 - - - - - - -
21.01.2020 23:00:00 - - - - - - -
21.01.2020 22:00:00 - - - - - - -
21.01.2020 21:00:00 - - - - - - -
21.01.2020 20:00:00 - - - - - - -
21.01.2020 19:00:00 7,6 3,3 34 18 ENE 1034,1 15
21.01.2020 18:00:00 - - - - - - -
21.01.2020 17:00:00 - - - - - - -
21.01.2020 16:00:00 10,2 2,8 22 12 ENE 1034,5 20
21.01.2020 15:00:00 - - - - - - -
21.01.2020 14:00:00 - - - - - - -
21.01.2020 13:00:00 9,2 2,5 26 14 NE 1035,4 20
21.01.2020 12:00:00 - - - - - - -
21.01.2020 11:00:00 - - - - - - -
21.01.2020 10:00:00 7,8 3,1 34 18 NE 1036,0 20
21.01.2020 09:00:00 - - - - - - -
21.01.2020 08:00:00 - - - - - - -
21.01.2020 07:00:00 6,8 3,4 42 23 NE 1035,4 15
21.01.2020 06:00:00 - - - - - - -
21.01.2020 05:00:00 - - - - - - -
21.01.2020 04:00:00 - - - - - - -
21.01.2020 03:00:00 - - - - - - -
21.01.2020 02:00:00 - - - - - - -
21.01.2020 01:00:00 - - - - - - -
21.01.2020 00:00:00 - - - - - - -
20.01.2020 23:00:00 - - - - - - -
20.01.2020 22:00:00 - - - - - - -
20.01.2020 21:00:00 - - - - - - -
20.01.2020 20:00:00 - - - - - - -
20.01.2020 19:00:00 8,0 4,0 41 22 NE 1031,7 15
20.01.2020 18:00:00 - - - - - - -
20.01.2020 17:00:00 - - - - - - -
20.01.2020 16:00:00 9,0 3,2 37 20 NE 1030,3 20
20.01.2020 15:00:00 - - - - - - -
20.01.2020 14:00:00 - - - - - - -
20.01.2020 13:00:00 9,8 4,6 35 19 NE 1029,9 20
20.01.2020 12:00:00 - - - - - - -
20.01.2020 11:00:00 - - - - - - -
20.01.2020 10:00:00 8,4 3,2 37 20 NE 1029,3 25
20.01.2020 09:00:00 - - - - - - -
20.01.2020 08:00:00 - - - - - - -
20.01.2020 07:00:00 7,0 2,9 35 19 NE 1028,5 18
20.01.2020 06:00:00 - - - - - - -
20.01.2020 05:00:00 - - - - - - -
20.01.2020 04:00:00 - - - - - - -
20.01.2020 03:00:00 - - - - - - -
20.01.2020 02:00:00 - - - - - - -
20.01.2020 01:00:00 - - - - - - -
20.01.2020 00:00:00 - - - - - - -
19.01.2020 23:00:00 - - - - - - -
19.01.2020 22:00:00 - - - - - - -
19.01.2020 21:00:00 - - - - - - -
19.01.2020 20:00:00 - - - - - - -
19.01.2020 19:00:00 8,6 4,0 26 14 NE 1022,8 18
19.01.2020 18:00:00 - - - - - - -
19.01.2020 17:00:00 - - - - - - -
19.01.2020 16:00:00 11,0 6,6 8 4 S 1020,9 10
19.01.2020 15:00:00 - - - - - - -
19.01.2020 14:00:00 - - - - - - -
19.01.2020 13:00:00 10,4 6,4 15 8 SSO 1020,8 18
19.01.2020 12:00:00 - - - - - - -
19.01.2020 11:00:00 - - - - - - -
19.01.2020 10:00:00 9,6 4,2 5 3 SSO 1020,5 16
19.01.2020 09:00:00 - - - - - - -
19.01.2020 08:00:00 - - - - - - -
19.01.2020 07:00:00 7,8 5,1 8 4 NNE 1020,5 13
19.01.2020 06:00:00 - - - - - - -
19.01.2020 05:00:00 - - - - - - -
19.01.2020 04:00:00 - - - - - - -
19.01.2020 03:00:00 - - - - - - -
19.01.2020 02:00:00 - - - - - - -
19.01.2020 01:00:00 - - - - - - -
19.01.2020 00:00:00 - - - - - - -
18.01.2020 23:00:00 - - - - - - -
18.01.2020 22:00:00 - - - - - - -
18.01.2020 21:00:00 - - - - - - -
18.01.2020 20:00:00 - - - - - - -
18.01.2020 19:00:00 7,8 5,3 15 8 O 1021,3 14
18.01.2020 18:00:00 - - - - - - -
18.01.2020 17:00:00 - - - - - - -
18.01.2020 16:00:00 9,6 7,2 9 5 ONO 1020,9 14
18.01.2020 15:00:00 - - - - - - -
18.01.2020 14:00:00 - - - - - - -
18.01.2020 13:00:00 10,0 7,2 15 8 SO 1022,3 14
18.01.2020 12:00:00 - - - - - - -
18.01.2020 11:00:00 - - - - - - -
18.01.2020 10:00:00 8,4 6,9 13 7 S 1023,8 12
18.01.2020 09:00:00 - - - - - - -
18.01.2020 08:00:00 - - - - - - -
18.01.2020 07:00:00 8,0 4,2 11 6 S 1024,5 15
18.01.2020 06:00:00 - - - - - - -
18.01.2020 05:00:00 - - - - - - -
18.01.2020 04:00:00 - - - - - - -
18.01.2020 03:00:00 - - - - - - -
18.01.2020 02:00:00 - - - - - - -
18.01.2020 01:00:00 - - - - - - -
18.01.2020 00:00:00 - - - - - - -
17.01.2020 23:00:00 - - - - - - -
17.01.2020 22:00:00 - - - - - - -
17.01.2020 21:00:00 - - - - - - -
17.01.2020 20:00:00 - - - - - - -
17.01.2020 19:00:00 7,6 4,0 8 4 NO 1025,4 20
17.01.2020 18:00:00 - - - - - - -
17.01.2020 17:00:00 - - - - - - -
17.01.2020 16:00:00 9,8 2,9 9 5 O 1024,7 20
17.01.2020 15:00:00 - - - - - - -
17.01.2020 14:00:00 - - - - - - -
17.01.2020 13:00:00 10,8 4,9 15 8 O 1025,3 20
17.01.2020 12:00:00 - - - - - - -
17.01.2020 11:00:00 - - - - - - -
17.01.2020 10:00:00 9,0 3,4 4 2 O 1025,9 20
17.01.2020 09:00:00 - - - - - - -
17.01.2020 08:00:00 - - - - - - -
17.01.2020 07:00:00 7,8 4,2 8 4 OSO 1026,2 20
17.01.2020 06:00:00 - - - - - - -
17.01.2020 05:00:00 - - - - - - -
17.01.2020 04:00:00 - - - - - - -
17.01.2020 03:00:00 - - - - - - -
17.01.2020 02:00:00 - - - - - - -
17.01.2020 01:00:00 - - - - - - -
17.01.2020 00:00:00 - - - - - - -
16.01.2020 23:00:00 - - - - - - -
16.01.2020 22:00:00 - - - - - - -
16.01.2020 21:00:00 - - - - - - -
16.01.2020 20:00:00 - - - - - - -
16.01.2020 19:00:00 8,0 3,8 0 0 N 1027,1 20
16.01.2020 18:00:00 - - - - - - -
16.01.2020 17:00:00 - - - - - - -
16.01.2020 16:00:00 10,2 4,6 9 5 O 1026,7 20
16.01.2020 15:00:00 - - - - - - -
16.01.2020 14:00:00 - - - - - - -
16.01.2020 13:00:00 11,2 4,9 9 5 O 1027,1 25
16.01.2020 12:00:00 - - - - - - -
16.01.2020 11:00:00 - - - - - - -
16.01.2020 10:00:00 9,0 4,8 4 2 OSO 1028,2 25
16.01.2020 09:00:00 - - - - - - -
16.01.2020 08:00:00 - - - - - - -
16.01.2020 07:00:00 7,4 5,1 8 4 NNE 1028,4 20
16.01.2020 06:00:00 - - - - - - -
16.01.2020 05:00:00 - - - - - - -
16.01.2020 04:00:00 - - - - - - -
16.01.2020 03:00:00 - - - - - - -
16.01.2020 02:00:00 - - - - - - -
16.01.2020 01:00:00 - - - - - - -

tt = Temperatura
td = dewpoint
ff = velocità del vento
dd = direzione del vento
ppp = reduced air pressure
vv = visibility

Stazioni seguenti

WeatherPro
AMSI
MeteoEarth